Location: Goudex
(43.3760°N, 0.9543°E)
Time: 10:54:48
(UTC+00:00)

Cosmos 1408 Rocket - Pass Details

Date: 20 November 2019
Orbit: 602 x 630 km, 82.6° (Epoch: 08 December)

Event Time Altitude Azimuth Distance (km) Brightness Sun altitude
Rises 05:36:24 0° 210° (SSW) 2,842 6.8 -14.3°
Reaches altitude 10° 05:38:46 10° 220° (SW) 1,947 5.9 -13.9°
Maximum altitude 05:42:40 33° 285° (WNW) 1,030 4.1 -13.2°
Drops below altitude 10° 05:46:37 10° 350° (N) 1,972 5.9 -12.5°
Sets 05:49:02 0° 360° (N) 2,886 6.8 -12.0°
